SWR542D LSZH-EGLL

Flight info

Callsign SWR542D
Flight time 1h 22m
Altitude 34000
Route VEBIT T10 TORPA DCT REKLA DCT RLP DCT ROTSI DCT KOTUN DCT NINAL DCT ABNUR DCT DIMAL DCT ALESO
Aircraft A321/M-SDE3FGHIRWY/LB1

Departure

Time 2026-04-26 09:10
Airport Zürich Airport (LSZH)

Arrival

Time 2026-04-26 10:32
Airport London Heathrow Airport (EGLL)
Time Latitude Longitude Altitude Speed Heading
2026-04-26 08:28 47.45333 8.55943 1414 ft 0 kts
2026-04-26 09:00 47.45321 8.55941 1407 ft 4 kts 18°
2026-04-26 09:01 47.45300 8.55921 1411 ft 4 kts 44°
2026-04-26 09:01 47.45283 8.55901 1407 ft 4 kts 26°
2026-04-26 09:01 47.45262 8.55897 1407 ft 4 kts 321°
2026-04-26 09:01 47.45250 8.55926 1409 ft 4 kts 280°
2026-04-26 09:02 47.45248 8.55958 1410 ft 0 kts 276°
2026-04-26 09:04 47.45249 8.55950 1413 ft 4 kts 276°
2026-04-26 09:04 47.45254 8.55875 1414 ft 8 kts 276°
2026-04-26 09:04 47.45260 8.55798 1407 ft 7 kts 276°
2026-04-26 09:05 47.45264 8.55735 1409 ft 6 kts 276°
2026-04-26 09:05 47.45268 8.55680 1406 ft 7 kts 276°
2026-04-26 09:05 47.45274 8.55601 1406 ft 7 kts 276°
2026-04-26 09:05 47.45259 8.55530 1404 ft 9 kts 220°
2026-04-26 09:06 47.45194 8.55518 1405 ft 10 kts 169°
2026-04-26 09:06 47.45134 8.55554 1404 ft 9 kts 155°
2026-04-26 09:06 47.45081 8.55590 1406 ft 8 kts 155°
2026-04-26 09:06 47.45015 8.55635 1404 ft 14 kts 155°
2026-04-26 09:07 47.44907 8.55708 1401 ft 18 kts 156°
2026-04-26 09:07 47.44794 8.55785 1404 ft 18 kts 155°
2026-04-26 09:07 47.44696 8.55851 1402 ft 8 kts 156°
2026-04-26 09:07 47.44650 8.55855 1399 ft 6 kts 195°
2026-04-26 09:08 47.44624 8.55829 1394 ft 4 kts 227°
2026-04-26 09:08 47.44612 8.55799 1398 ft 4 kts 242°
2026-04-26 09:08 47.44600 8.55760 1402 ft 4 kts 247°
2026-04-26 09:08 47.44583 8.55693 1404 ft 8 kts 263°
2026-04-26 09:09 47.44609 8.55636 1393 ft 7 kts 329°
2026-04-26 09:09 47.44635 8.55616 1393 ft 0 kts 334°
2026-04-26 09:09 47.44647 8.55608 1399 ft 13 kts 334°
2026-04-26 09:09 47.44965 8.55389 1400 ft 85 kts 335°
2026-04-26 09:10 47.45690 8.54889 1399 ft 143 kts 335°
2026-04-26 09:10 47.46728 8.54178 1439 ft 182 kts 337°
2026-04-26 09:10 47.47859 8.53433 2140 ft 176 kts 338°
2026-04-26 09:10 47.48971 8.52654 2781 ft 179 kts 336°
2026-04-26 09:11 47.50155 8.51806 2950 ft 200 kts 336°
2026-04-26 09:11 47.51461 8.50857 3246 ft 216 kts 335°
2026-04-26 09:11 47.52740 8.49617 3672 ft 223 kts 315°
2026-04-26 09:11 47.53557 8.47653 4144 ft 228 kts 288°
2026-04-26 09:12 47.53711 8.45360 4719 ft 230 kts 262°
2026-04-26 09:12 47.53211 8.43095 4984 ft 235 kts 245°
2026-04-26 09:12 47.52455 8.40899 5507 ft 239 kts 235°
2026-04-26 09:12 47.51303 8.39153 6188 ft 238 kts 214°
2026-04-26 09:13 47.49758 8.38082 6497 ft 258 kts 193°
2026-04-26 09:13 47.47932 8.37494 6861 ft 276 kts 191°
2026-04-26 09:13 47.46034 8.36892 7413 ft 281 kts 191°
2026-04-26 09:13 47.44111 8.36278 8091 ft 285 kts 192°
2026-04-26 09:14 47.42166 8.35649 8788 ft 288 kts 193°
2026-04-26 09:14 47.40283 8.34598 9443 ft 292 kts 210°
2026-04-26 09:14 47.38659 8.32789 10105 ft 295 kts 226°
2026-04-26 09:14 47.37437 8.30359 10704 ft 300 kts 242°
2026-04-26 09:15 47.36437 8.27576 10857 ft 322 kts 243°
2026-04-26 09:15 47.35371 8.24558 10984 ft 343 kts 243°
2026-04-26 09:15 47.34243 8.21361 11273 ft 357 kts 243°
2026-04-26 09:15 47.33091 8.18101 11845 ft 361 kts 243°
2026-04-26 09:16 47.31919 8.14794 12471 ft 364 kts 243°
2026-04-26 09:16 47.30736 8.11465 13118 ft 367 kts 243°
2026-04-26 09:16 47.29556 8.08148 13743 ft 369 kts 243°
2026-04-26 09:16 47.28386 8.04756 14331 ft 372 kts 247°
2026-04-26 09:17 47.27591 8.01131 14912 ft 374 kts 259°
2026-04-26 09:17 47.27344 7.98577 15299 ft 375 kts 266°
2026-04-26 09:17 47.27541 7.93494 16027 ft 377 kts 279°
2026-04-26 09:17 47.27927 7.89657 16584 ft 379 kts 278°
2026-04-26 09:18 47.28305 7.85806 17119 ft 381 kts 278°
2026-04-26 09:18 47.28676 7.81935 17632 ft 384 kts 278°
2026-04-26 09:18 47.29044 7.78022 18135 ft 386 kts 278°
2026-04-26 09:18 47.29410 7.74089 18621 ft 389 kts 278°
2026-04-26 09:19 47.29776 7.70133 19087 ft 391 kts 278°
2026-04-26 09:19 47.30140 7.66201 19549 ft 393 kts 278°
2026-04-26 09:19 47.30617 7.62231 19993 ft 396 kts 284°
2026-04-26 09:19 47.31437 7.58351 20415 ft 398 kts 287°
2026-04-26 09:20 47.32294 7.54455 20836 ft 401 kts 287°
2026-04-26 09:20 47.33153 7.50535 21260 ft 403 kts 287°
2026-04-26 09:20 47.34012 7.46598 21674 ft 405 kts 287°
2026-04-26 09:20 47.34875 7.42627 22075 ft 407 kts 287°
2026-04-26 09:21 47.35736 7.38639 22472 ft 410 kts 287°
2026-04-26 09:21 47.36589 7.34674 22873 ft 412 kts 287°
2026-04-26 09:21 47.37456 7.30642 23251 ft 414 kts 287°
2026-04-26 09:21 47.38331 7.26572 23632 ft 417 kts 287°
2026-04-26 09:22 47.39206 7.22493 24004 ft 419 kts 287°
2026-04-26 09:22 47.40086 7.18381 24372 ft 421 kts 287°
2026-04-26 09:22 47.40902 7.14235 24722 ft 422 kts 282°
2026-04-26 09:22 47.41529 7.09990 25074 ft 423 kts 281°
2026-04-26 09:23 47.42156 7.05739 25413 ft 425 kts 281°
2026-04-26 09:23 47.42788 7.01456 25745 ft 427 kts 281°
2026-04-26 09:23 47.43418 6.97161 26085 ft 429 kts 281°
2026-04-26 09:23 47.44047 6.92854 26427 ft 430 kts 281°
2026-04-26 09:24 47.44664 6.88587 26738 ft 432 kts 281°
2026-04-26 09:24 47.45291 6.84244 27063 ft 433 kts 281°
2026-04-26 09:24 47.45922 6.79887 27359 ft 435 kts 281°
2026-04-26 09:24 47.46556 6.75511 27660 ft 436 kts 281°
2026-04-26 09:25 47.47191 6.71119 27949 ft 437 kts 281°
2026-04-26 09:25 47.47824 6.66712 28236 ft 439 kts 281°
2026-04-26 09:25 47.48467 6.62301 28527 ft 440 kts 281°
2026-04-26 09:25 47.49125 6.57884 28814 ft 441 kts 281°
2026-04-26 09:26 47.49789 6.53450 29117 ft 442 kts 281°
2026-04-26 09:26 47.50447 6.49064 29397 ft 443 kts 281°
2026-04-26 09:26 47.51116 6.44615 29720 ft 442 kts 281°
2026-04-26 09:26 47.51786 6.40185 30079 ft 441 kts 281°
2026-04-26 09:27 47.52458 6.35775 30449 ft 439 kts 281°
2026-04-26 09:27 47.53127 6.31373 30785 ft 438 kts 281°
2026-04-26 09:27 47.53794 6.26973 31114 ft 438 kts 281°
2026-04-26 09:27 47.54458 6.22588 31442 ft 437 kts 281°
2026-04-26 09:28 47.55121 6.18201 31745 ft 437 kts 281°
2026-04-26 09:28 47.55782 6.13817 32065 ft 436 kts 281°
2026-04-26 09:28 47.56431 6.09496 32369 ft 436 kts 281°
2026-04-26 09:28 47.57088 6.05110 32670 ft 435 kts 281°
2026-04-26 09:29 47.57741 6.00745 32964 ft 435 kts 281°
2026-04-26 09:29 47.58393 5.96365 33245 ft 435 kts 281°
2026-04-26 09:29 47.59039 5.91989 33513 ft 435 kts 281°
2026-04-26 09:29 47.59682 5.87617 33794 ft 435 kts 281°
2026-04-26 09:30 47.60324 5.83238 34071 ft 435 kts 281°
2026-04-26 09:30 47.60965 5.78851 34214 ft 435 kts 281°
2026-04-26 09:30 47.61594 5.74528 34230 ft 435 kts 281°
2026-04-26 09:31 47.63399 5.66060 34230 ft 433 kts 300°
2026-04-26 09:31 47.65262 5.62561 34233 ft 435 kts 313°
2026-04-26 09:31 47.67408 5.59399 34231 ft 435 kts 313°
2026-04-26 09:32 47.71711 5.53063 34227 ft 435 kts 313°
2026-04-26 09:32 47.75969 5.46759 34231 ft 436 kts 313°
2026-04-26 09:33 47.80252 5.40396 34232 ft 435 kts 313°
2026-04-26 09:33 47.84524 5.34032 34234 ft 435 kts 313°
2026-04-26 09:34 47.88795 5.27657 34226 ft 434 kts 313°
2026-04-26 09:34 47.92981 5.21260 34226 ft 433 kts 311°
2026-04-26 09:35 47.97021 5.14594 34225 ft 433 kts 310°
2026-04-26 09:35 48.01008 5.07870 34230 ft 433 kts 310°
2026-04-26 09:36 48.05020 5.01189 34229 ft 431 kts 311°
2026-04-26 09:36 48.09017 4.94587 34229 ft 430 kts 311°
2026-04-26 09:37 48.13023 4.87939 34226 ft 430 kts 311°
2026-04-26 09:37 48.17012 4.81280 34237 ft 429 kts 311°
2026-04-26 09:38 48.20995 4.74623 34236 ft 428 kts 311°
2026-04-26 09:38 48.24962 4.67970 34239 ft 428 kts 311°
2026-04-26 09:39 48.28900 4.61360 34241 ft 427 kts 311°
2026-04-26 09:39 48.32862 4.54702 34243 ft 427 kts 311°
2026-04-26 09:40 48.36812 4.48039 34239 ft 427 kts 311°
2026-04-26 09:40 48.40757 4.41360 34251 ft 427 kts 311°
2026-04-26 09:41 48.44672 4.34724 34245 ft 427 kts 310°
2026-04-26 09:41 48.48603 4.28034 34246 ft 426 kts 310°
2026-04-26 09:42 48.52528 4.21335 34247 ft 426 kts 310°
2026-04-26 09:42 48.56453 4.14629 34247 ft 426 kts 310°
2026-04-26 09:43 48.60370 4.07920 34250 ft 426 kts 310°
2026-04-26 09:43 48.64258 4.01242 34251 ft 426 kts 310°
2026-04-26 09:44 48.68170 3.94505 34263 ft 425 kts 311°
2026-04-26 09:44 48.72061 3.87783 34268 ft 424 kts 310°
2026-04-26 09:45 48.76125 3.81301 34269 ft 424 kts 315°
2026-04-26 09:45 48.80361 3.75188 34267 ft 423 kts 316°
2026-04-26 09:46 48.84626 3.69028 34268 ft 423 kts 315°
2026-04-26 09:46 48.88826 3.62792 34265 ft 422 kts 315°
2026-04-26 09:47 48.93001 3.56510 34267 ft 422 kts 315°
2026-04-26 09:47 48.97134 3.50253 34266 ft 422 kts 315°
2026-04-26 09:48 49.01306 3.43979 34264 ft 421 kts 315°
2026-04-26 09:48 49.05475 3.37706 34264 ft 421 kts 315°
2026-04-26 09:49 49.09621 3.31417 34264 ft 421 kts 314°
2026-04-26 09:49 49.13763 3.25118 34264 ft 420 kts 315°
2026-04-26 09:50 49.17878 3.18862 34265 ft 420 kts 315°
2026-04-26 09:50 49.22013 3.12551 34266 ft 420 kts 314°
2026-04-26 09:51 49.26140 3.06241 34271 ft 419 kts 315°
2026-04-26 09:51 49.29571 3.00997 34274 ft 419 kts 315°
2026-04-26 09:52 49.34346 2.93655 34277 ft 418 kts 315°
2026-04-26 09:52 49.40489 2.84182 34280 ft 417 kts 315°
2026-04-26 09:53 49.43894 2.78919 34281 ft 417 kts 315°
2026-04-26 09:53 49.47976 2.72597 34284 ft 416 kts 315°
2026-04-26 09:54 49.52699 2.65254 34285 ft 415 kts 314°
2026-04-26 09:54 49.56755 2.58935 34289 ft 414 kts 315°
2026-04-26 09:55 49.60128 2.53696 34290 ft 414 kts 317°
2026-04-26 09:55 49.64654 2.48207 34291 ft 414 kts 322°
2026-04-26 09:56 49.69985 2.41972 34296 ft 413 kts 322°
2026-04-26 09:56 49.74556 2.36588 34297 ft 412 kts 322°
2026-04-26 09:57 49.78345 2.32119 34310 ft 412 kts 322°
2026-04-26 09:57 49.82900 2.26746 34299 ft 411 kts 322°
2026-04-26 09:58 49.88184 2.20491 34299 ft 411 kts 322°
2026-04-26 09:58 49.91985 2.15977 34301 ft 411 kts 322°
2026-04-26 09:59 49.96488 2.10617 34296 ft 410 kts 322°
2026-04-26 09:59 50.01012 2.05214 34306 ft 410 kts 322°
2026-04-26 10:00 50.05532 1.99810 34302 ft 410 kts 322°
2026-04-26 10:00 50.10057 1.94392 34312 ft 410 kts 322°
2026-04-26 10:01 50.14541 1.88999 34315 ft 410 kts 322°
2026-04-26 10:01 50.18874 1.83248 34307 ft 409 kts 315°
2026-04-26 10:02 50.22948 1.77040 34313 ft 409 kts 315°
2026-04-26 10:02 50.27025 1.70825 34313 ft 409 kts 315°
2026-04-26 10:03 50.31090 1.64615 34318 ft 409 kts 315°
2026-04-26 10:03 50.35146 1.58394 34004 ft 411 kts 315°
2026-04-26 10:04 50.37182 1.55262 33499 ft 411 kts 315°
2026-04-26 10:04 50.39221 1.52127 33001 ft 412 kts 315°
2026-04-26 10:04 50.41262 1.48988 32503 ft 413 kts 315°
2026-04-26 10:04 50.43297 1.45854 32004 ft 415 kts 315°
2026-04-26 10:05 50.45386 1.42625 31495 ft 417 kts 315°
2026-04-26 10:05 50.47454 1.39428 30998 ft 418 kts 315°
2026-04-26 10:05 50.49521 1.36224 30493 ft 416 kts 314°
2026-04-26 10:05 50.51498 1.33036 29999 ft 413 kts 313°
2026-04-26 10:06 50.53454 1.29745 29500 ft 410 kts 312°
2026-04-26 10:06 50.55372 1.26430 28994 ft 408 kts 311°
2026-04-26 10:06 50.57267 1.23128 28488 ft 405 kts 311°
2026-04-26 10:06 50.59174 1.19881 27990 ft 403 kts 313°
2026-04-26 10:07 50.61123 1.16726 27456 ft 401 kts 314°
2026-04-26 10:07 50.63097 1.13635 26948 ft 399 kts 315°
2026-04-26 10:07 50.65070 1.10583 26408 ft 397 kts 315°
2026-04-26 10:07 50.67032 1.07545 25888 ft 394 kts 315°
2026-04-26 10:08 50.68944 1.04562 25364 ft 392 kts 314°
2026-04-26 10:08 50.70874 1.01521 24842 ft 390 kts 314°
2026-04-26 10:08 50.72786 0.98484 24311 ft 388 kts 314°
2026-04-26 10:08 50.74681 0.95466 23791 ft 386 kts 314°
2026-04-26 10:09 50.76563 0.92463 23257 ft 384 kts 314°
2026-04-26 10:09 50.78436 0.89476 22739 ft 382 kts 314°
2026-04-26 10:09 50.80297 0.86506 22213 ft 379 kts 314°
2026-04-26 10:09 50.82147 0.83553 21714 ft 377 kts 314°
2026-04-26 10:10 50.83986 0.80616 21229 ft 374 kts 314°
2026-04-26 10:10 50.85811 0.77694 20753 ft 372 kts 314°
2026-04-26 10:10 50.87602 0.74820 20280 ft 370 kts 314°
2026-04-26 10:10 50.89403 0.71924 19813 ft 368 kts 314°
2026-04-26 10:11 50.91193 0.69042 19326 ft 366 kts 314°
2026-04-26 10:11 50.92976 0.66172 18857 ft 365 kts 314°
2026-04-26 10:11 50.94751 0.63317 18436 ft 362 kts 314°
2026-04-26 10:11 50.96511 0.60478 18324 ft 361 kts 314°
2026-04-26 10:12 50.98275 0.57630 18254 ft 363 kts 314°
2026-04-26 10:12 51.00036 0.54782 17833 ft 361 kts 314°
2026-04-26 10:12 51.01760 0.51989 17342 ft 360 kts 313°
2026-04-26 10:12 51.03521 0.49133 16834 ft 358 kts 314°
2026-04-26 10:13 51.05258 0.46311 16335 ft 357 kts 314°
2026-04-26 10:13 51.06991 0.43500 15837 ft 355 kts 314°
2026-04-26 10:13 51.08744 0.40732 15336 ft 354 kts 315°
2026-04-26 10:13 51.10512 0.38023 14832 ft 353 kts 315°
2026-04-26 10:14 51.12293 0.35334 14329 ft 352 kts 316°
2026-04-26 10:14 51.14071 0.32660 13811 ft 350 kts 316°
2026-04-26 10:14 51.15803 0.30054 13479 ft 336 kts 316°
2026-04-26 10:14 51.17462 0.27541 13156 ft 321 kts 316°
2026-04-26 10:15 51.19047 0.25127 12831 ft 309 kts 316°
2026-04-26 10:15 51.20571 0.22798 12499 ft 299 kts 315°
2026-04-26 10:15 51.22039 0.20545 11998 ft 295 kts 316°
2026-04-26 10:15 51.23511 0.18277 11423 ft 294 kts 315°
2026-04-26 10:16 51.24975 0.16018 10855 ft 293 kts 316°
2026-04-26 10:16 51.26436 0.13763 10266 ft 291 kts 316°
2026-04-26 10:16 51.27886 0.11526 9703 ft 289 kts 316°
2026-04-26 10:16 51.29320 0.09310 9259 ft 283 kts 316°
2026-04-26 10:17 51.30682 0.07186 9017 ft 268 kts 314°
2026-04-26 10:17 51.31597 0.04605 8454 ft 267 kts 282°
2026-04-26 10:17 51.31786 0.01747 8353 ft 253 kts 272°
2026-04-26 10:17 51.31827 -0.01052 8354 ft 251 kts 271°
2026-04-26 10:18 51.31855 -0.03841 8301 ft 250 kts 271°
2026-04-26 10:18 51.31885 -0.06617 7975 ft 249 kts 271°
2026-04-26 10:18 51.31919 -0.09384 7657 ft 249 kts 271°
2026-04-26 10:18 51.31958 -0.12141 7389 ft 245 kts 271°
2026-04-26 10:19 51.32002 -0.14866 7345 ft 246 kts 271°
2026-04-26 10:19 51.32050 -0.17605 7347 ft 247 kts 271°
2026-04-26 10:19 51.32099 -0.20313 7344 ft 247 kts 271°
2026-04-26 10:19 51.32148 -0.23056 7344 ft 247 kts 271°
2026-04-26 10:20 51.32197 -0.25795 7335 ft 247 kts 271°
2026-04-26 10:20 51.32246 -0.28541 7330 ft 247 kts 271°
2026-04-26 10:20 51.32295 -0.31281 7332 ft 247 kts 271°
2026-04-26 10:20 51.32344 -0.34023 7334 ft 247 kts 271°
2026-04-26 10:21 51.32393 -0.36759 7332 ft 247 kts 271°
2026-04-26 10:21 51.32441 -0.39521 7331 ft 249 kts 271°
2026-04-26 10:21 51.32489 -0.42289 7333 ft 250 kts 271°
2026-04-26 10:21 51.32538 -0.45026 7332 ft 249 kts 271°
2026-04-26 10:22 51.32586 -0.47802 7333 ft 250 kts 271°
2026-04-26 10:22 51.32633 -0.50575 7330 ft 250 kts 271°
2026-04-26 10:22 51.32681 -0.53350 7332 ft 249 kts 271°
2026-04-26 10:22 51.32729 -0.56116 7226 ft 248 kts 271°
2026-04-26 10:23 51.32777 -0.58876 6892 ft 248 kts 271°
2026-04-26 10:23 51.32828 -0.61624 6566 ft 247 kts 271°
2026-04-26 10:23 51.32878 -0.64351 6255 ft 245 kts 271°
2026-04-26 10:23 51.32926 -0.67068 5939 ft 243 kts 271°
2026-04-26 10:24 51.32974 -0.69741 5618 ft 243 kts 271°
2026-04-26 10:24 51.33023 -0.72438 5311 ft 243 kts 271°
2026-04-26 10:24 51.33071 -0.75131 4996 ft 242 kts 271°
2026-04-26 10:24 51.33119 -0.77811 4710 ft 241 kts 271°
2026-04-26 10:25 51.33171 -0.80491 4415 ft 241 kts 271°
2026-04-26 10:25 51.33399 -0.83128 4135 ft 240 kts 292°
2026-04-26 10:25 51.34390 -0.85211 4004 ft 238 kts 326°
2026-04-26 10:25 51.35927 -0.86132 4021 ft 238 kts 355°
2026-04-26 10:26 51.37555 -0.86287 4042 ft 228 kts
2026-04-26 10:26 51.39112 -0.86331 4009 ft 221 kts
2026-04-26 10:26 51.40626 -0.86361 4007 ft 220 kts
2026-04-26 10:26 51.42154 -0.86387 4020 ft 219 kts
2026-04-26 10:27 51.43657 -0.86209 3883 ft 215 kts 21°
2026-04-26 10:27 51.44867 -0.84906 3577 ft 209 kts 50°
2026-04-26 10:27 51.45786 -0.83094 3238 ft 210 kts 56°
2026-04-26 10:27 51.46655 -0.81230 3030 ft 208 kts 56°
2026-04-26 10:28 51.47397 -0.79254 3012 ft 206 kts 73°
2026-04-26 10:28 51.47596 -0.77016 3016 ft 203 kts 92°
2026-04-26 10:28 51.47606 -0.74751 3018 ft 203 kts 91°
2026-04-26 10:28 51.47624 -0.72536 2948 ft 192 kts 91°
2026-04-26 10:29 51.47638 -0.70470 2754 ft 185 kts 91°
2026-04-26 10:29 51.47650 -0.68418 2500 ft 182 kts 90°
2026-04-26 10:29 51.47661 -0.66426 2272 ft 176 kts 91°
2026-04-26 10:29 51.47671 -0.64483 2039 ft 172 kts 90°
2026-04-26 10:30 51.47682 -0.62631 1841 ft 158 kts 90°
2026-04-26 10:30 51.47691 -0.60938 1621 ft 147 kts 90°
2026-04-26 10:30 51.47699 -0.59321 1436 ft 144 kts 90°
2026-04-26 10:30 51.47707 -0.57723 1231 ft 142 kts 89°
2026-04-26 10:31 51.47714 -0.56141 1043 ft 142 kts 89°
2026-04-26 10:31 51.47722 -0.54580 849 ft 142 kts 89°
2026-04-26 10:31 51.47729 -0.53001 677 ft 142 kts 89°
2026-04-26 10:31 51.47736 -0.51426 483 ft 141 kts 90°
2026-04-26 10:32 51.47746 -0.49853 308 ft 141 kts 89°
2026-04-26 10:32 51.47750 -0.48276 125 ft 141 kts 90°
2026-04-26 10:32 51.47756 -0.46811 91 ft 115 kts 89°
2026-04-26 10:32 51.47760 -0.45995 85 ft 44 kts 90°
2026-04-26 10:33 51.47761 -0.45630 88 ft 19 kts 89°
2026-04-26 10:33 51.47720 -0.45470 87 ft 13 kts 155°
2026-04-26 10:33 51.47644 -0.45467 88 ft 8 kts 181°
2026-04-26 10:33 51.47621 -0.45467 86 ft 0 kts 180°
2026-04-26 10:34 51.47615 -0.45467 86 ft 3 kts 180°
2026-04-26 10:34 51.47587 -0.45467 86 ft 4 kts 179°
2026-04-26 10:34 51.47558 -0.45466 86 ft 7 kts 179°
2026-04-26 10:34 51.47513 -0.45427 88 ft 7 kts 120°
2026-04-26 10:35 51.47508 -0.45352 86 ft 6 kts 91°
2026-04-26 10:35 51.47509 -0.45286 90 ft 6 kts 89°
2026-04-26 10:35 51.47509 -0.45228 90 ft 5 kts 89°
2026-04-26 10:35 51.47510 -0.45178 89 ft 5 kts 89°
2026-04-26 10:36 51.47509 -0.45075 86 ft 12 kts 90°
2026-04-26 10:36 51.47509 -0.44950 88 ft 11 kts 90°
2026-04-26 10:36 51.47510 -0.44831 88 ft 10 kts 89°
2026-04-26 10:36 51.47511 -0.44718 88 ft 10 kts 90°
2026-04-26 10:37 51.47504 -0.44616 90 ft 9 kts 109°
2026-04-26 10:37 51.47448 -0.44560 89 ft 11 kts 177°
2026-04-26 10:37 51.47371 -0.44559 86 ft 11 kts 179°
2026-04-26 10:37 51.47295 -0.44557 86 ft 14 kts 179°
2026-04-26 10:38 51.47199 -0.44557 86 ft 14 kts 180°
2026-04-26 10:38 51.47107 -0.44557 87 ft 13 kts 180°
2026-04-26 10:38 51.47020 -0.44556 87 ft 12 kts 180°
2026-04-26 10:38 51.46939 -0.44555 88 ft 11 kts 179°
2026-04-26 10:39 51.46877 -0.44556 86 ft 4 kts 189°
2026-04-26 10:39 51.46864 -0.44580 86 ft 2 kts 242°
2026-04-26 10:39 51.46860 -0.44612 89 ft 3 kts 262°
2026-04-26 10:39 51.46859 -0.44651 89 ft 3 kts 266°
2026-04-26 10:40 51.46858 -0.44678 86 ft 2 kts 267°
2026-04-26 10:40 51.46858 -0.44680 86 ft 0 kts 267°